EW3205 Weather Reports


time (UTC)temp
F
wind
direction
speed
knots
gust
knots
rain 1hr
in
rain 24hr
in
rain mn
in
humidity
%
barometer
mb
20260904224502 55 225 2.6 5.2 0.01 0.10 0.00 93 997.3
20260904223106 55 227 2.6 6.1 0.03 0.10 0.00 93 997.2
20260904221559 55 258 2.6 7.0 0.06 0.10 0.00 93 997.2
20260904220056 56 252 2.6 9.6 0.06 0.10 0.00 93 997.1
20260904214554 56 287 1.7 8.7 0.06 0.23 0.09 93 997.0
20260904213053 56 265 1.7 7.8 0.02 0.19 0.06 93 997.0
20260904211552 56 244 2.6 7.0 0.02 0.18 0.05 93 996.9
20260904210052 57 242 1.7 5.2 0.02 0.18 0.05 93 996.8
20260904204552 57 236 1.7 5.2 0.02 0.18 0.04 92 996.7
20260904203054 56 239 0.9 4.3 0.02 0.18 0.04 91 996.8
20260904201551 56 285 1.7 4.3 0.02 0.17 0.02 91 996.9
20260904200048 56 247 0.9 7.0 0.02 0.17 0.02 90 996.9
20260904194546 57 242 2.6 6.1 0.02 0.17 0.02 90 996.9
20260904193046 58 227 3.5 7.0 0.01 0.17 0.02 88 996.9
20260904191545 58 258 0.9 4.3 0.00 0.16 0.01 86 996.8
20260904190043 59 261 0.0 4.3 0.00 0.16 0.01 84 996.9
20260904184543 58 259 0.0 4.3 0.00 0.17 0.01 84 996.9
20260904183044 58 240 0.9 3.5 0.00 0.17 0.01 84 997.0
20260904181543 58 227 1.7 5.2 0.00 0.17 0.01 83 997.1
20260904180041 58 223 0.9 4.3 0.00 0.17 0.01 83 997.2
20260904174541 58 233 1.7 5.2 0.00 0.19 0.01 82 997.2
20260904173043 58 251 0.9 5.2 0.00 0.19 0.01 82 997.2
20260904171543 59 236 1.7 5.2 0.00 0.19 0.01 81 997.1
20260904170040 59 233 0.9 7.0 0.00 0.19 0.01 82 997.1
20260904164540 60 228 2.6 9.6 0.00 0.19 0.01 82 997.1
20260904163039 60 272 1.7 4.3 0.00 0.19 0.01 82 997.1
20260904161541 60 281 2.6 12.2 0.00 0.19 0.01 79 997.1
20260904160037 62 243 2.6 7.0 0.00 0.19 0.01 78 997.3
20260904154535 62 245 0.9 7.8 0.00 0.21 0.01 82 997.2
20260904153048 60 239 1.7 6.1 0.00 0.21 0.01 82 997.3
20260904151534 60 242 2.6 8.7 0.00 0.21 0.01 82 997.3
20260904150035 61 285 1.7 9.6 0.00 0.21 0.01 81 997.4
20260904144534 61 227 3.5 9.6 0.00 0.28 0.01 80 997.5
20260904143036 61 4 6.1 10.4 0.00 0.28 0.01 80 997.3
20260904141534 61 281 5.2 10.4 0.00 0.28 0.01 79 997.5
20260904140030 61 4 4.3 11.3 0.00 0.28 0.01 80 997.7
20260904134531 61 4 4.3 9.6 0.00 0.28 0.01 79 997.7
20260904133028 62 260 7.0 10.4 0.00 0.28 0.01 80 997.9
20260904131527 62 4 6.1 9.6 0.00 0.28 0.01 80 998.0
20260904130039 62 4 7.0 12.2 0.00 0.28 0.01 79 998.0
20260904124526 61 209 5.2 11.3 0.00 0.28 0.01 81 998.1
20260904123025 61 4 5.2 11.3 0.00 0.28 0.01 81 998.2
20260904121522 61 193 7.0 9.6 0.00 0.28 0.01 81 998.4
20260904120033 61 213 8.7 14.8 0.00 0.28 0.01 82 998.3
20260904114521 61 4 6.1 14.8 0.00 0.28 0.01 81 998.6
20260904113019 61 4 7.8 13.9 0.00 0.28 0.01 79 998.7
20260904111516 60 4 7.0 13.0 0.00 0.28 0.01 79 998.9
20260904110015 60 264 6.1 12.2 0.00 0.28 0.01 80 998.8
20260904104522 60 233 7.0 13.0 0.00 0.28 0.01 80 999.0
20260904103013 61 186 6.1 13.9 0.00 0.28 0.01 79 999.2
20260904101512 61 215 7.0 12.2 0.00 0.28 0.01 78 999.3
20260904100011 61 219 6.1 12.2 0.00 0.28 0.01 79 999.3
20260904094509 60 221 5.2 17.4 0.00 0.28 0.01 80 999.4
20260904093006 60 4 9.6 18.2 0.00 0.28 0.01 80 999.6
20260904091507 60 242 7.0 14.8 0.00 0.28 0.01 82 999.7
20260904090005 60 176 8.7 17.4 0.00 0.28 0.01 82 999.8
20260904084505 60 231 7.8 16.5 0.00 0.28 0.01 79 999.9
20260904083002 60 242 7.8 16.5 0.00 0.28 0.01 81 999.8
20260904081504 59 247 7.0 10.4 0.00 0.28 0.01 83 999.8
20260904080105 59 235 7.8 14.8 0.00 0.28 0.01 82 999.8
20260904074559 59 244 8.7 20.0 0.00 0.28 0.01 78 999.9
20260904073059 60 250 5.2 16.5 0.00 0.28 0.01 78 1000.2
20260904071558 60 227 7.8 13.9 0.00 0.28 0.01 77 1000.1
20260904070055 60 236 7.8 20.9 0.00 0.28 0.01 77 1000.1
20260904064556 59 226 6.1 16.5 0.00 0.28 0.01 80 1000.3
20260904063050 59 208 7.8 14.8 0.00 0.28 0.01 81 1000.4
20260904061552 59 182 7.0 16.5 0.00 0.28 0.01 80 1000.3
20260904060048 59 4 7.0 15.6 0.00 0.28 0.01 82 1000.7
20260904054546 59 247 4.3 14.8 0.00 0.28 0.01 82 1000.8
20260904053045 59 4 6.1 16.5 0.00 0.28 0.01 83 1000.9
20260904051544 59 4 8.7 16.5 0.00 0.28 0.01 82 1000.9
20260904050041 58 214 7.8 20.9 0.00 0.28 0.01 81 1000.9
20260904044551 58 4 9.6 20.0 0.00 0.28 0.01 81 1000.9
20260904043058 58 216 7.0 15.6 0.00 0.28 0.01 82 1000.9
20260904041535 58 244 6.1 21.7 0.00 0.28 0.01 82 1001.0
20260904040033 58 267 8.7 17.4 0.00 0.28 0.01 83 1000.9
20260904034532 58 235 8.7 19.1 0.00 0.28 0.01 82 1000.9
20260904033030 58 257 8.7 20.9 0.00 0.28 0.01 84 1001.1
20260904031528 58 246 6.1 15.6 0.00 0.28 0.01 85 1001.2
20260904030027 58 213 7.8 19.1 0.00 0.28 0.01 85 1001.4
20260904024526 58 4 7.0 18.2 0.00 0.28 0.01 86 1001.4
20260904023025 58 257 9.6 16.5 0.00 0.28 0.01 86 1001.3
20260904021525 58 213 7.8 20.9 0.00 0.28 0.01 86 1001.5
20260904020021 58 259 9.6 18.2 0.00 0.28 0.01 86 1001.6
20260904014520 58 223 8.7 19.1 0.00 0.28 0.01 88 1001.7
20260904013019 58 222 7.8 17.4 0.00 0.28 0.01 89 1001.8
20260904011518 58 271 7.0 21.7 0.00 0.28 0.01 89 1001.9
20260904010017 58 298 8.7 15.6 0.00 0.28 0.01 90 1001.7
20260904004514 57 235 10.4 18.2 0.00 0.28 0.01 91 1002.0
20260904003011 58 220 8.7 18.2 0.00 0.28 0.01 93 1002.3
20260904001511 58 4 7.8 20.0 0.01 0.28 0.01 94 1002.5
20260904000009 58 4 6.1 13.9 0.01 0.28 0.01 94 1002.4
20260903234520 57 4 5.2 15.6 0.01 0.28 0.01 94 1002.4
20260903233008 58 207 6.1 14.8 0.01 0.28 0.01 94 1002.6
20260903231506 58 213 8.7 16.5 0.00 0.28 0.00 94 1002.6
20260903230009 58 246 7.8 19.1 0.00 0.28 0.00 94 1002.6